Location: Kalberh�ni
(46.4610°N, 7.2453°E)
Time: 17:07:09
(UTC+00:00)

Meteor 2-1 Rocket - Pass Details

Date: 31 October 2021
Orbit: 830 x 906 km, 81.3° (Epoch: 28 November)

Event Time Altitude Azimuth Distance (km) Brightness Sun altitude
Rises 18:47:59 0° 200° (SSW) 3,400 7.5 -26.4°
Reaches altitude 10° 18:50:27 10° 203° (SSW) 2,460 6.8 -26.8°
Maximum altitude 18:55:57 61° 284° (WNW) 947 4.6 -27.7°
Drops below altitude 10° 19:01:26 10° 5° (N) 2,450 6.6 -28.7°
Sets 19:03:52 0° 9° (N) 3,386 7.4 -29.1°
